Location: Unspecified
(52.4292°N, 19.3359°E)
Time: 00:59:30
(UTC+02:00)

Vanguard 1 Rocket - Pass Details

Date: 27 May 2024
Orbit: 649 x 4221 km, 34.3° (Epoch: 13 June)

Event Time Altitude Azimuth Distance (km) Brightness Sun altitude
Rises 05:22:12 0° 179° (S) 8,404 12.0 5.7°
Reaches altitude 10° 05:33:24 10° 158° (SSE) 7,368 12.0 7.3°
Maximum altitude 05:43:00 14° 135° (SE) 6,719 12.1 8.6°
Drops below altitude 10° 05:51:32 10° 112° (ESE) 6,526 12.6 9.8°
Sets 05:59:44 0° 91° (E) 6,836 13.3 10.9°
